Location: Usti nad Labem
(50.6670°N, 14.0330°E)
Time: 01:53:42
(UTC+02:00)

ISS - Pass Details

Date: 25 April 2025
Orbit: 416 x 420 km, 51.6° (Epoch: 16 May)

Event Time Altitude Azimuth Distance (km) Brightness Sun altitude
Exits shadow 03:44:47 21° 155° (SSE) 1,004 -2.1 -16.9°
Maximum altitude 03:45:13 21° 144° (SE) 988 -2.0 -16.8°
Drops below altitude 10° 03:47:50 10° 92° (E) 1,495 -0.4 -16.6°
Sets 03:50:14 0° 76° (ENE) 2,363 1.0 -16.3°
